User: anonymous   Login
Location: Ottawa
(45.4170°N, 75.7000°W)
Time: 02:11:08
(UTC-04:00)
Language:

Aureole 3 Rocket - Orbit

View from above orbital plane
View from above orbital plane
View from above satellite
View from above satellite

Ground track
Ground track

The orbit data is extracted from the following two-line orbital elements,

1 12849U 81094B   16182.22075539  .00000154  00000-0  13706-4 0  9998
2 12849  82.4942  76.7898 0903119 281.2150  68.8903 13.49861258694439
Epoch (UTC): 30 June 2016 05:17:53
Eccentricity: 0.0903119
inclination: 82.4942°
perigee height: 400 km
apogee height: 1745 km
right ascension of ascending node: 76.7898°
argument of perigee: 281.2150°
revolutions per day: 13.49861258
mean anomaly at epoch: 68.8903°
orbit number at epoch: 69443

The dashed part of the orbit path shows where the satellite is in the earth's shadow,  

DLR